Location: Unspecified
(22.6800°N, 112.2000°E)
Time: 13:21:27
(UTC+08:00)

Transit 2A - Pass Details

Date: 07 August 2021
Orbit: 594 x 964 km, 66.7° (Epoch: 21 September)

Event Time Altitude Azimuth Distance (km) Brightness Sun altitude
Rises 15:20:18 0° 330° (NNW) 3,430 9.6 51.1°
Reaches altitude 10° 15:22:44 10° 326° (NNW) 2,540 9.1 50.6°
Maximum altitude 15:28:33 56° 250° (WSW) 1,096 9.0 49.2°
Drops below altitude 10° 15:34:41 10° 174° (S) 2,679 8.9 47.8°
Sets 15:37:20 0° 169° (S) 3,632 9.4 47.2°
